owner,sensor,date,latitude,longitude,vertical_datum,sea_water_temperature,qcFlag 
WAVCIS,ioos:station:WAVCIS:CSI15:1,2010-06-01T00:00:00Z,28.8332,-90.8320,10.0,4.601,11133222 
WAVCIS,ioos:station:WAVCIS:CSI15:1,2010-06-01T01:00:00Z,28.8332,-90.8320,10.0,4.537,11133222 
WAVCIS,ioos:station:WAVCIS:CSI15:1,2010-06-01T02:00:00Z,28.8332,-90.8320,10.0,4.216,11133222 
WAVCIS,ioos:station:WAVCIS:CSI15:1,2010-06-01T03:00:00Z,28.8332,-90.8320,10.0,4.199,11133222 
WAVCIS,ioos:station:WAVCIS:CSI15:1,2010-06-01T04:00:00Z,28.8332,-90.8320,10.0,4.187,11133222 
WAVCIS,ioos:station:WAVCIS:CSI15:1,2010-06-01T05:00:00Z,28.8332,-90.8320,10.0,4.514,11133222 
WAVCIS,ioos:station:WAVCIS:CSI15:1,2010-06-01T06:00:00Z,28.8332,-90.8320,10.0,4.613,11133222 
WAVCIS,ioos:station:WAVCIS:CSI15:1,2010-06-01T07:00:00Z,28.8332,-90.8320,10.0,4.809,11133222 
WAVCIS,ioos:station:WAVCIS:CSI15:1,2010-06-01T08:00:00Z,28.8332,-90.8320,10.0,4.806,11133222 
WAVCIS,ioos:station:WAVCIS:CSI15:1,2010-06-01T09:00:00Z,28.8332,-90.8320,10.0,4.863,11133222 
WAVCIS,ioos:station:WAVCIS:CSI15:1,2010-06-01T10:00:00Z,28.8332,-90.8320,10.0,4.871,11133222 
WAVCIS,ioos:station:WAVCIS:CSI15:1,2010-06-01T11:00:00Z,28.8332,-90.8320,10.0,4.907,11133222 
WAVCIS,ioos:station:WAVCIS:CSI15:1,2010-06-01T12:00:00Z,28.8332,-90.8320,10.0,4.888,11133222 
WAVCIS,ioos:station:WAVCIS:CSI15:1,2010-06-01T13:00:00Z,28.8332,-90.8320,10.0,4.827,11133222 
WAVCIS,ioos:station:WAVCIS:CSI15:1,2010-06-01T14:00:00Z,28.8332,-90.8320,10.0,4.865,11133222 
WAVCIS,ioos:station:WAVCIS:CSI15:1,2010-06-01T15:00:00Z,28.8332,-90.8320,10.0,4.854,11133222 
WAVCIS,ioos:station:WAVCIS:CSI15:1,2010-06-01T16:00:00Z,28.8332,-90.8320,10.0,4.443,11133222 
WAVCIS,ioos:station:WAVCIS:CSI15:1,2010-06-01T17:00:00Z,28.8332,-90.8320,10.0,4.533,11133222 
WAVCIS,ioos:station:WAVCIS:CSI15:1,2010-06-01T18:00:00Z,28.8332,-90.8320,10.0,4.666,11133222 
WAVCIS,ioos:station:WAVCIS:CSI15:1,2010-06-01T19:00:00Z,28.8332,-90.8320,10.0,4.609,11133222 
WAVCIS,ioos:station:WAVCIS:CSI15:1,2010-06-01T20:00:00Z,28.8332,-90.8320,10.0,4.396,11133222 
WAVCIS,ioos:station:WAVCIS:CSI15:1,2010-06-01T21:00:00Z,28.8332,-90.8320,10.0,4.41,11133222 
WAVCIS,ioos:station:WAVCIS:CSI15:1,2010-06-01T22:00:00Z,28.8332,-90.8320,10.0,4.587,11133222 
WAVCIS,ioos:station:WAVCIS:CSI15:1,2010-06-01T23:00:00Z,28.8332,-90.8320,10.0,4.423,11133222 
WAVCIS,ioos:station:WAVCIS:CSI15:1,2010-06-02T00:00:00Z,28.8332,-90.8320,10.0,4.176,11133222 
WAVCIS,ioos:station:WAVCIS:CSI15:1,2010-06-02T01:00:00Z,28.8332,-90.8320,10.0,3.977,11133222 
WAVCIS,ioos:station:WAVCIS:CSI15:1,2010-06-02T02:00:00Z,28.8332,-90.8320,10.0,4.082,11133222 
WAVCIS,ioos:station:WAVCIS:CSI15:1,2010-06-02T03:00:00Z,28.8332,-90.8320,10.0,3.953,11133222 
WAVCIS,ioos:station:WAVCIS:CSI15:1,2010-06-02T04:00:00Z,28.8332,-90.8320,10.0,4.568,11133222 
WAVCIS,ioos:station:WAVCIS:CSI15:1,2010-06-02T05:00:00Z,28.8332,-90.8320,10.0,4.576,11133222 
WAVCIS,ioos:station:WAVCIS:CSI15:1,2010-06-02T06:00:00Z,28.8332,-90.8320,10.0,4.638,11133222 
WAVCIS,ioos:station:WAVCIS:CSI15:1,2010-06-02T07:00:00Z,28.8332,-90.8320,10.0,4.584,11133222 
WAVCIS,ioos:station:WAVCIS:CSI15:1,2010-06-02T08:00:00Z,28.8332,-90.8320,10.0,4.614,11133222 
WAVCIS,ioos:station:WAVCIS:CSI15:1,2010-06-02T09:00:00Z,28.8332,-90.8320,10.0,4.583,11133222 
WAVCIS,ioos:station:WAVCIS:CSI15:1,2010-06-02T10:00:00Z,28.8332,-90.8320,10.0,4.444,11133222 
WAVCIS,ioos:station:WAVCIS:CSI15:1,2010-06-02T11:00:00Z,28.8332,-90.8320,10.0,5.018,11133222 
WAVCIS,ioos:station:WAVCIS:CSI15:1,2010-06-02T12:00:00Z,28.8332,-90.8320,10.0,28.14,11111222 
WAVCIS,ioos:station:WAVCIS:CSI15:1,2010-06-02T13:00:00Z,28.8332,-90.8320,10.0,28.83,11111222 
WAVCIS,ioos:station:WAVCIS:CSI15:1,2010-06-02T14:00:00Z,28.8332,-90.8320,10.0,28.95,11111222 
WAVCIS,ioos:station:WAVCIS:CSI15:1,2010-06-02T15:00:00Z,28.8332,-90.8320,10.0,23.99,11111222 
WAVCIS,ioos:station:WAVCIS:CSI15:1,2010-06-02T16:00:00Z,28.8332,-90.8320,10.0,28.44,11111222 
WAVCIS,ioos:station:WAVCIS:CSI15:1,2010-06-02T17:00:00Z,28.8332,-90.8320,10.0,28.55,11111222 
WAVCIS,ioos:station:WAVCIS:CSI15:1,2010-06-02T18:00:00Z,28.8332,-90.8320,10.0,17.96,11111222 
WAVCIS,ioos:station:WAVCIS:CSI15:1,2010-06-02T19:00:00Z,28.8332,-90.8320,10.0,5.305,11133222 
WAVCIS,ioos:station:WAVCIS:CSI15:1,2010-06-02T20:00:00Z,28.8332,-90.8320,10.0,28.51,11111222 
WAVCIS,ioos:station:WAVCIS:CSI15:1,2010-06-02T21:00:00Z,28.8332,-90.8320,10.0,27.91,11111222 
WAVCIS,ioos:station:WAVCIS:CSI15:1,2010-06-02T22:00:00Z,28.8332,-90.8320,10.0,27.33,11111222 
WAVCIS,ioos:station:WAVCIS:CSI15:1,2010-06-02T23:00:00Z,28.8332,-90.8320,10.0,9.73,11133222 
WAVCIS,ioos:station:WAVCIS:CSI15:1,2010-06-03T00:00:00Z,28.8332,-90.8320,10.0,16.94,11111222 
WAVCIS,ioos:station:WAVCIS:CSI15:1,2010-06-03T01:00:00Z,28.8332,-90.8320,10.0,27.0,11111222 
WAVCIS,ioos:station:WAVCIS:CSI15:1,2010-06-03T02:00:00Z,28.8332,-90.8320,10.0,27.56,11111222 
WAVCIS,ioos:station:WAVCIS:CSI15:1,2010-06-03T03:00:00Z,28.8332,-90.8320,10.0,26.71,11111222 
WAVCIS,ioos:station:WAVCIS:CSI15:1,2010-06-03T04:00:00Z,28.8332,-90.8320,10.0,27.18,11111222 
WAVCIS,ioos:station:WAVCIS:CSI15:1,2010-06-03T05:00:00Z,28.8332,-90.8320,10.0,21.79,11111222 
WAVCIS,ioos:station:WAVCIS:CSI15:1,2010-06-03T06:00:00Z,28.8332,-90.8320,10.0,5.966,11133222 
WAVCIS,ioos:station:WAVCIS:CSI15:1,2010-06-03T07:00:00Z,28.8332,-90.8320,10.0,5.984,11133222 
WAVCIS,ioos:station:WAVCIS:CSI15:1,2010-06-03T08:00:00Z,28.8332,-90.8320,10.0,14.41,11111222 
WAVCIS,ioos:station:WAVCIS:CSI15:1,2010-06-03T09:00:00Z,28.8332,-90.8320,10.0,15.97,11111222 
WAVCIS,ioos:station:WAVCIS:CSI15:1,2010-06-03T10:00:00Z,28.8332,-90.8320,10.0,9.15,11133222 
WAVCIS,ioos:station:WAVCIS:CSI15:1,2010-06-03T11:00:00Z,28.8332,-90.8320,10.0,8.2,11133222 
WAVCIS,ioos:station:WAVCIS:CSI15:1,2010-06-03T12:00:00Z,28.8332,-90.8320,10.0,5.255,11133222 
WAVCIS,ioos:station:WAVCIS:CSI15:1,2010-06-03T13:00:00Z,28.8332,-90.8320,10.0,6.313,11133222 
WAVCIS,ioos:station:WAVCIS:CSI15:1,2010-06-03T14:00:00Z,28.8332,-90.8320,10.0,5.22,11133222 
WAVCIS,ioos:station:WAVCIS:CSI15:1,2010-06-03T15:00:00Z,28.8332,-90.8320,10.0,5.466,11133222 
WAVCIS,ioos:station:WAVCIS:CSI15:1,2010-06-03T16:00:00Z,28.8332,-90.8320,10.0,4.145,11133222 
WAVCIS,ioos:station:WAVCIS:CSI15:1,2010-06-03T17:00:00Z,28.8332,-90.8320,10.0,4.126,11133222 
WAVCIS,ioos:station:WAVCIS:CSI15:1,2010-06-03T18:00:00Z,28.8332,-90.8320,10.0,4.172,11133222 
WAVCIS,ioos:station:WAVCIS:CSI15:1,2010-06-03T19:00:00Z,28.8332,-90.8320,10.0,4.258,11133222 
WAVCIS,ioos:station:WAVCIS:CSI15:1,2010-06-03T20:00:00Z,28.8332,-90.8320,10.0,4.225,11133222 
WAVCIS,ioos:station:WAVCIS:CSI15:1,2010-06-03T21:00:00Z,28.8332,-90.8320,10.0,4.182,11133222 
WAVCIS,ioos:station:WAVCIS:CSI15:1,2010-06-03T22:00:00Z,28.8332,-90.8320,10.0,4.203,11133222 
WAVCIS,ioos:station:WAVCIS:CSI15:1,2010-06-03T23:00:00Z,28.8332,-90.8320,10.0,4.144,11133222 
WAVCIS,ioos:station:WAVCIS:CSI15:1,2010-06-04T00:00:00Z,28.8332,-90.8320,10.0,4.132,11133222 
WAVCIS,ioos:station:WAVCIS:CSI15:1,2010-06-04T01:00:00Z,28.8332,-90.8320,10.0,4.061,11133222 
WAVCIS,ioos:station:WAVCIS:CSI15:1,2010-06-04T02:00:00Z,28.8332,-90.8320,10.0,3.993,11133222 
WAVCIS,ioos:station:WAVCIS:CSI15:1,2010-06-04T03:00:00Z,28.8332,-90.8320,10.0,3.935,11133222 
WAVCIS,ioos:station:WAVCIS:CSI15:1,2010-06-04T04:00:00Z,28.8332,-90.8320,10.0,3.92,11133222 
WAVCIS,ioos:station:WAVCIS:CSI15:1,2010-06-04T05:00:00Z,28.8332,-90.8320,10.0,3.904,11133222 
WAVCIS,ioos:station:WAVCIS:CSI15:1,2010-06-04T06:00:00Z,28.8332,-90.8320,10.0,3.883,11133222 
WAVCIS,ioos:station:WAVCIS:CSI15:1,2010-06-04T07:00:00Z,28.8332,-90.8320,10.0,3.865,11133222 
WAVCIS,ioos:station:WAVCIS:CSI15:1,2010-06-04T08:00:00Z,28.8332,-90.8320,10.0,3.85,11133222 
WAVCIS,ioos:station:WAVCIS:CSI15:1,2010-06-04T09:00:00Z,28.8332,-90.8320,10.0,3.852,11133222 
WAVCIS,ioos:station:WAVCIS:CSI15:1,2010-06-04T10:00:00Z,28.8332,-90.8320,10.0,3.864,11133222 
WAVCIS,ioos:station:WAVCIS:CSI15:1,2010-06-04T11:00:00Z,28.8332,-90.8320,10.0,3.931,11133222 
WAVCIS,ioos:station:WAVCIS:CSI15:1,2010-06-04T12:00:00Z,28.8332,-90.8320,10.0,3.961,11133222 
WAVCIS,ioos:station:WAVCIS:CSI15:1,2010-06-04T13:00:00Z,28.8332,-90.8320,10.0,3.822,11133222 
WAVCIS,ioos:station:WAVCIS:CSI15:1,2010-06-04T14:00:00Z,28.8332,-90.8320,10.0,3.827,11133222 
WAVCIS,ioos:station:WAVCIS:CSI15:1,2010-06-04T15:00:00Z,28.8332,-90.8320,10.0,3.795,11133222 
WAVCIS,ioos:station:WAVCIS:CSI15:1,2010-06-04T16:00:00Z,28.8332,-90.8320,10.0,3.912,11133222 
WAVCIS,ioos:station:WAVCIS:CSI15:1,2010-06-04T17:00:00Z,28.8332,-90.8320,10.0,3.904,11133222 
WAVCIS,ioos:station:WAVCIS:CSI15:1,2010-06-04T18:00:00Z,28.8332,-90.8320,10.0,3.859,11133222 
WAVCIS,ioos:station:WAVCIS:CSI15:1,2010-06-04T19:00:00Z,28.8332,-90.8320,10.0,3.838,11133222 
WAVCIS,ioos:station:WAVCIS:CSI15:1,2010-06-04T20:00:00Z,28.8332,-90.8320,10.0,3.843,11133222 
WAVCIS,ioos:station:WAVCIS:CSI15:1,2010-06-04T21:00:00Z,28.8332,-90.8320,10.0,3.862,11133222 
WAVCIS,ioos:station:WAVCIS:CSI15:1,2010-06-04T22:00:00Z,28.8332,-90.8320,10.0,3.882,11133222 
WAVCIS,ioos:station:WAVCIS:CSI15:1,2010-06-04T23:00:00Z,28.8332,-90.8320,10.0,3.894,11133222 
WAVCIS,ioos:station:WAVCIS:CSI15:1,2010-06-05T00:00:00Z,28.8332,-90.8320,10.0,3.871,11133222 
WAVCIS,ioos:station:WAVCIS:CSI15:1,2010-06-05T01:00:00Z,28.8332,-90.8320,10.0,3.838,11133222 
WAVCIS,ioos:station:WAVCIS:CSI15:1,2010-06-05T02:00:00Z,28.8332,-90.8320,10.0,3.801,11133222 
WAVCIS,ioos:station:WAVCIS:CSI15:1,2010-06-05T03:00:00Z,28.8332,-90.8320,10.0,3.767,11133222 
WAVCIS,ioos:station:WAVCIS:CSI15:1,2010-06-05T04:00:00Z,28.8332,-90.8320,10.0,3.825,11133222 
WAVCIS,ioos:station:WAVCIS:CSI15:1,2010-06-05T05:00:00Z,28.8332,-90.8320,10.0,3.798,11133222 
WAVCIS,ioos:station:WAVCIS:CSI15:1,2010-06-05T06:00:00Z,28.8332,-90.8320,10.0,3.888,11133222 
WAVCIS,ioos:station:WAVCIS:CSI15:1,2010-06-05T07:00:00Z,28.8332,-90.8320,10.0,3.899,11133222 
WAVCIS,ioos:station:WAVCIS:CSI15:1,2010-06-05T08:00:00Z,28.8332,-90.8320,10.0,3.906,11133222 
WAVCIS,ioos:station:WAVCIS:CSI15:1,2010-06-05T09:00:00Z,28.8332,-90.8320,10.0,3.898,11133222 
WAVCIS,ioos:station:WAVCIS:CSI15:1,2010-06-05T10:00:00Z,28.8332,-90.8320,10.0,3.93,11133222 
WAVCIS,ioos:station:WAVCIS:CSI15:1,2010-06-05T11:00:00Z,28.8332,-90.8320,10.0,3.928,11133222 
WAVCIS,ioos:station:WAVCIS:CSI15:1,2010-06-05T12:00:00Z,28.8332,-90.8320,10.0,3.882,11133222 
WAVCIS,ioos:station:WAVCIS:CSI15:1,2010-06-05T13:00:00Z,28.8332,-90.8320,10.0,3.794,11133222 
WAVCIS,ioos:station:WAVCIS:CSI15:1,2010-06-05T14:00:00Z,28.8332,-90.8320,10.0,3.831,11133222 
WAVCIS,ioos:station:WAVCIS:CSI15:1,2010-06-05T15:00:00Z,28.8332,-90.8320,10.0,3.928,11133222 
WAVCIS,ioos:station:WAVCIS:CSI15:1,2010-06-05T16:00:00Z,28.8332,-90.8320,10.0,3.984,11133222 
WAVCIS,ioos:station:WAVCIS:CSI15:1,2010-06-05T17:00:00Z,28.8332,-90.8320,10.0,3.944,11133222 
WAVCIS,ioos:station:WAVCIS:CSI15:1,2010-06-05T18:00:00Z,28.8332,-90.8320,10.0,4.033,11133222 
WAVCIS,ioos:station:WAVCIS:CSI15:1,2010-06-05T19:00:00Z,28.8332,-90.8320,10.0,4.054,11133222 
WAVCIS,ioos:station:WAVCIS:CSI15:1,2010-06-05T20:00:00Z,28.8332,-90.8320,10.0,4.05,11133222 
WAVCIS,ioos:station:WAVCIS:CSI15:1,2010-06-05T21:00:00Z,28.8332,-90.8320,10.0,4.16,11133222 
WAVCIS,ioos:station:WAVCIS:CSI15:1,2010-06-05T22:00:00Z,28.8332,-90.8320,10.0,4.231,11133222 
WAVCIS,ioos:station:WAVCIS:CSI15:1,2010-06-05T23:00:00Z,28.8332,-90.8320,10.0,4.413,11133222 
WAVCIS,ioos:station:WAVCIS:CSI15:1,2010-06-06T00:00:00Z,28.8332,-90.8320,10.0,4.477,11133222 
WAVCIS,ioos:station:WAVCIS:CSI15:1,2010-06-06T01:00:00Z,28.8332,-90.8320,10.0,4.395,11133222 
WAVCIS,ioos:station:WAVCIS:CSI15:1,2010-06-06T02:00:00Z,28.8332,-90.8320,10.0,4.356,11133222 
WAVCIS,ioos:station:WAVCIS:CSI15:1,2010-06-06T03:00:00Z,28.8332,-90.8320,10.0,4.35,11133222 
WAVCIS,ioos:station:WAVCIS:CSI15:1,2010-06-06T04:00:00Z,28.8332,-90.8320,10.0,4.396,11133222 
WAVCIS,ioos:station:WAVCIS:CSI15:1,2010-06-06T05:00:00Z,28.8332,-90.8320,10.0,3.994,11133222 
WAVCIS,ioos:station:WAVCIS:CSI15:1,2010-06-06T06:00:00Z,28.8332,-90.8320,10.0,4.095,11133222 
WAVCIS,ioos:station:WAVCIS:CSI15:1,2010-06-06T07:00:00Z,28.8332,-90.8320,10.0,4.28,11133222 
WAVCIS,ioos:station:WAVCIS:CSI15:1,2010-06-06T08:00:00Z,28.8332,-90.8320,10.0,4.241,11133222 
WAVCIS,ioos:station:WAVCIS:CSI15:1,2010-06-06T09:00:00Z,28.8332,-90.8320,10.0,4.252,11133222 
WAVCIS,ioos:station:WAVCIS:CSI15:1,2010-06-06T10:00:00Z,28.8332,-90.8320,10.0,4.207,11133222 
WAVCIS,ioos:station:WAVCIS:CSI15:1,2010-06-06T11:00:00Z,28.8332,-90.8320,10.0,4.243,11133222 
WAVCIS,ioos:station:WAVCIS:CSI15:1,2010-06-06T12:00:00Z,28.8332,-90.8320,10.0,4.315,11133222 
WAVCIS,ioos:station:WAVCIS:CSI15:1,2010-06-06T13:00:00Z,28.8332,-90.8320,10.0,4.261,11133222 
WAVCIS,ioos:station:WAVCIS:CSI15:1,2010-06-06T14:00:00Z,28.8332,-90.8320,10.0,4.395,11133222 
WAVCIS,ioos:station:WAVCIS:CSI15:1,2010-06-06T15:00:00Z,28.8332,-90.8320,10.0,4.462,11133222 
WAVCIS,ioos:station:WAVCIS:CSI15:1,2010-06-06T16:00:00Z,28.8332,-90.8320,10.0,4.489,11133222 
WAVCIS,ioos:station:WAVCIS:CSI15:1,2010-06-06T17:00:00Z,28.8332,-90.8320,10.0,4.508,11133222 
WAVCIS,ioos:station:WAVCIS:CSI15:1,2010-06-06T18:00:00Z,28.8332,-90.8320,10.0,4.525,11133222 
WAVCIS,ioos:station:WAVCIS:CSI15:1,2010-06-06T19:00:00Z,28.8332,-90.8320,10.0,4.521,11133222 
WAVCIS,ioos:station:WAVCIS:CSI15:1,2010-06-06T20:00:00Z,28.8332,-90.8320,10.0,4.573,11133222 
WAVCIS,ioos:station:WAVCIS:CSI15:1,2010-06-06T21:00:00Z,28.8332,-90.8320,10.0,4.536,11133222 
WAVCIS,ioos:station:WAVCIS:CSI15:1,2010-06-06T22:00:00Z,28.8332,-90.8320,10.0,4.545,11133222 
WAVCIS,ioos:station:WAVCIS:CSI15:1,2010-06-06T23:00:00Z,28.8332,-90.8320,10.0,4.685,11133222 
WAVCIS,ioos:station:WAVCIS:CSI15:1,2010-06-07T00:00:00Z,28.8332,-90.8320,10.0,4.526,11133222 
WAVCIS,ioos:station:WAVCIS:CSI15:1,2010-06-07T01:00:00Z,28.8332,-90.8320,10.0,4.479,11133222 
WAVCIS,ioos:station:WAVCIS:CSI15:1,2010-06-07T02:00:00Z,28.8332,-90.8320,10.0,4.869,11133222 
WAVCIS,ioos:station:WAVCIS:CSI15:1,2010-06-07T03:00:00Z,28.8332,-90.8320,10.0,5.005,11133222 
WAVCIS,ioos:station:WAVCIS:CSI15:1,2010-06-07T04:00:00Z,28.8332,-90.8320,10.0,4.941,11133222 
WAVCIS,ioos:station:WAVCIS:CSI15:1,2010-06-07T05:00:00Z,28.8332,-90.8320,10.0,4.816,11133222 
WAVCIS,ioos:station:WAVCIS:CSI15:1,2010-06-07T06:00:00Z,28.8332,-90.8320,10.0,4.621,11133222 
WAVCIS,ioos:station:WAVCIS:CSI15:1,2010-06-07T07:00:00Z,28.8332,-90.8320,10.0,4.746,11133222 
WAVCIS,ioos:station:WAVCIS:CSI15:1,2010-06-07T08:00:00Z,28.8332,-90.8320,10.0,4.527,11133222 
WAVCIS,ioos:station:WAVCIS:CSI15:1,2010-06-07T09:00:00Z,28.8332,-90.8320,10.0,4.492,11133222 
WAVCIS,ioos:station:WAVCIS:CSI15:1,2010-06-07T10:00:00Z,28.8332,-90.8320,10.0,4.496,11133222 
WAVCIS,ioos:station:WAVCIS:CSI15:1,2010-06-07T11:00:00Z,28.8332,-90.8320,10.0,4.384,11133222 
WAVCIS,ioos:station:WAVCIS:CSI15:1,2010-06-07T12:00:00Z,28.8332,-90.8320,10.0,4.366,11133222 
WAVCIS,ioos:station:WAVCIS:CSI15:1,2010-06-07T13:00:00Z,28.8332,-90.8320,10.0,4.228,11133222 
WAVCIS,ioos:station:WAVCIS:CSI15:1,2010-06-07T14:00:00Z,28.8332,-90.8320,10.0,4.369,11133222 
WAVCIS,ioos:station:WAVCIS:CSI15:1,2010-06-07T15:00:00Z,28.8332,-90.8320,10.0,4.262,11133222 
WAVCIS,ioos:station:WAVCIS:CSI15:1,2010-06-07T16:00:00Z,28.8332,-90.8320,10.0,4.218,11133222 
WAVCIS,ioos:station:WAVCIS:CSI15:1,2010-06-07T17:00:00Z,28.8332,-90.8320,10.0,4.218,11133222 
WAVCIS,ioos:station:WAVCIS:CSI15:1,2010-06-07T18:00:00Z,28.8332,-90.8320,10.0,4.211,11133222 
WAVCIS,ioos:station:WAVCIS:CSI15:1,2010-06-07T19:00:00Z,28.8332,-90.8320,10.0,4.207,11133222 
WAVCIS,ioos:station:WAVCIS:CSI15:1,2010-06-07T20:00:00Z,28.8332,-90.8320,10.0,4.184,11133222 
WAVCIS,ioos:station:WAVCIS:CSI15:1,2010-06-07T21:00:00Z,28.8332,-90.8320,10.0,4.17,11133222 
WAVCIS,ioos:station:WAVCIS:CSI15:1,2010-06-07T22:00:00Z,28.8332,-90.8320,10.0,4.201,11133222 
WAVCIS,ioos:station:WAVCIS:CSI15:1,2010-06-07T23:00:00Z,28.8332,-90.8320,10.0,4.275,11133222 
WAVCIS,ioos:station:WAVCIS:CSI15:1,2010-06-08T00:00:00Z,28.8332,-90.8320,10.0,4.372,11133222 
WAVCIS,ioos:station:WAVCIS:CSI15:1,2010-06-08T01:00:00Z,28.8332,-90.8320,10.0,4.411,11133222 
WAVCIS,ioos:station:WAVCIS:CSI15:1,2010-06-08T02:00:00Z,28.8332,-90.8320,10.0,4.361,11133222 
WAVCIS,ioos:station:WAVCIS:CSI15:1,2010-06-08T03:00:00Z,28.8332,-90.8320,10.0,4.662,11133222 
WAVCIS,ioos:station:WAVCIS:CSI15:1,2010-06-08T04:00:00Z,28.8332,-90.8320,10.0,4.601,11133222 
WAVCIS,ioos:station:WAVCIS:CSI15:1,2010-06-08T05:00:00Z,28.8332,-90.8320,10.0,4.822,11133222 
WAVCIS,ioos:station:WAVCIS:CSI15:1,2010-06-08T06:00:00Z,28.8332,-90.8320,10.0,4.847,11133222 
WAVCIS,ioos:station:WAVCIS:CSI15:1,2010-06-08T07:00:00Z,28.8332,-90.8320,10.0,4.803,11133222 
WAVCIS,ioos:station:WAVCIS:CSI15:1,2010-06-08T08:00:00Z,28.8332,-90.8320,10.0,4.793,11133222 
WAVCIS,ioos:station:WAVCIS:CSI15:1,2010-06-08T09:00:00Z,28.8332,-90.8320,10.0,4.704,11133222 
WAVCIS,ioos:station:WAVCIS:CSI15:1,2010-06-08T10:00:00Z,28.8332,-90.8320,10.0,4.416,11133222 
WAVCIS,ioos:station:WAVCIS:CSI15:1,2010-06-08T11:00:00Z,28.8332,-90.8320,10.0,4.452,11133222 
WAVCIS,ioos:station:WAVCIS:CSI15:1,2010-06-08T12:00:00Z,28.8332,-90.8320,10.0,4.485,11133222 
WAVCIS,ioos:station:WAVCIS:CSI15:1,2010-06-08T13:00:00Z,28.8332,-90.8320,10.0,4.483,11133222 
WAVCIS,ioos:station:WAVCIS:CSI15:1,2010-06-08T14:00:00Z,28.8332,-90.8320,10.0,4.468,11133222 
WAVCIS,ioos:station:WAVCIS:CSI15:1,2010-06-08T15:00:00Z,28.8332,-90.8320,10.0,4.468,11133222 
WAVCIS,ioos:station:WAVCIS:CSI15:1,2010-06-08T16:00:00Z,28.8332,-90.8320,10.0,4.413,11133222 
WAVCIS,ioos:station:WAVCIS:CSI15:1,2010-06-08T17:00:00Z,28.8332,-90.8320,10.0,4.395,11133222 
WAVCIS,ioos:station:WAVCIS:CSI15:1,2010-06-08T18:00:00Z,28.8332,-90.8320,10.0,4.374,11133222 
WAVCIS,ioos:station:WAVCIS:CSI15:1,2010-06-08T19:00:00Z,28.8332,-90.8320,10.0,4.361,11133222 
WAVCIS,ioos:station:WAVCIS:CSI15:1,2010-06-08T20:00:00Z,28.8332,-90.8320,10.0,4.367,11133222 
WAVCIS,ioos:station:WAVCIS:CSI15:1,2010-06-08T21:00:00Z,28.8332,-90.8320,10.0,4.466,11133222 
WAVCIS,ioos:station:WAVCIS:CSI15:1,2010-06-08T22:00:00Z,28.8332,-90.8320,10.0,4.477,11133222 
WAVCIS,ioos:station:WAVCIS:CSI15:1,2010-06-08T23:00:00Z,28.8332,-90.8320,10.0,4.485,11133222 
WAVCIS,ioos:station:WAVCIS:CSI15:1,2010-06-09T00:00:00Z,28.8332,-90.8320,10.0,4.608,11133222 
WAVCIS,ioos:station:WAVCIS:CSI15:1,2010-06-09T01:00:00Z,28.8332,-90.8320,10.0,4.654,11133222 
WAVCIS,ioos:station:WAVCIS:CSI15:1,2010-06-09T02:00:00Z,28.8332,-90.8320,10.0,4.72,11133222 
WAVCIS,ioos:station:WAVCIS:CSI15:1,2010-06-09T03:00:00Z,28.8332,-90.8320,10.0,4.729,11133222 
WAVCIS,ioos:station:WAVCIS:CSI15:1,2010-06-09T04:00:00Z,28.8332,-90.8320,10.0,4.753,11133222 
WAVCIS,ioos:station:WAVCIS:CSI15:1,2010-06-09T05:00:00Z,28.8332,-90.8320,10.0,4.789,11133222 
WAVCIS,ioos:station:WAVCIS:CSI15:1,2010-06-09T06:00:00Z,28.8332,-90.8320,10.0,4.739,11133222 
WAVCIS,ioos:station:WAVCIS:CSI15:1,2010-06-09T07:00:00Z,28.8332,-90.8320,10.0,4.989,11133222 
WAVCIS,ioos:station:WAVCIS:CSI15:1,2010-06-09T08:00:00Z,28.8332,-90.8320,10.0,5.694,11133222 
WAVCIS,ioos:station:WAVCIS:CSI15:1,2010-06-09T09:00:00Z,28.8332,-90.8320,10.0,5.545,11133222 
WAVCIS,ioos:station:WAVCIS:CSI15:1,2010-06-09T10:00:00Z,28.8332,-90.8320,10.0,4.717,11133222 
WAVCIS,ioos:station:WAVCIS:CSI15:1,2010-06-09T11:00:00Z,28.8332,-90.8320,10.0,4.625,11133222 
WAVCIS,ioos:station:WAVCIS:CSI15:1,2010-06-09T12:00:00Z,28.8332,-90.8320,10.0,4.498,11133222 
WAVCIS,ioos:station:WAVCIS:CSI15:1,2010-06-09T13:00:00Z,28.8332,-90.8320,10.0,4.475,11133222 
WAVCIS,ioos:station:WAVCIS:CSI15:1,2010-06-09T14:00:00Z,28.8332,-90.8320,10.0,4.454,11133222 
WAVCIS,ioos:station:WAVCIS:CSI15:1,2010-06-09T15:00:00Z,28.8332,-90.8320,10.0,4.494,11133222 
WAVCIS,ioos:station:WAVCIS:CSI15:1,2010-06-09T16:00:00Z,28.8332,-90.8320,10.0,4.478,11133222 
WAVCIS,ioos:station:WAVCIS:CSI15:1,2010-06-09T17:00:00Z,28.8332,-90.8320,10.0,4.471,11133222 
WAVCIS,ioos:station:WAVCIS:CSI15:1,2010-06-09T18:00:00Z,28.8332,-90.8320,10.0,4.456,11133222 
WAVCIS,ioos:station:WAVCIS:CSI15:1,2010-06-09T19:00:00Z,28.8332,-90.8320,10.0,4.581,11133222 
WAVCIS,ioos:station:WAVCIS:CSI15:1,2010-06-09T20:00:00Z,28.8332,-90.8320,10.0,4.654,11133222 
WAVCIS,ioos:station:WAVCIS:CSI15:1,2010-06-09T21:00:00Z,28.8332,-90.8320,10.0,4.659,11133222 
WAVCIS,ioos:station:WAVCIS:CSI15:1,2010-06-09T22:00:00Z,28.8332,-90.8320,10.0,4.589,11133222 
WAVCIS,ioos:station:WAVCIS:CSI15:1,2010-06-09T23:00:00Z,28.8332,-90.8320,10.0,4.542,11133222 
WAVCIS,ioos:station:WAVCIS:CSI15:1,2010-06-10T00:00:00Z,28.8332,-90.8320,10.0,4.413,11133222 
WAVCIS,ioos:station:WAVCIS:CSI15:1,2010-06-10T01:00:00Z,28.8332,-90.8320,10.0,4.517,11133222 
WAVCIS,ioos:station:WAVCIS:CSI15:1,2010-06-10T02:00:00Z,28.8332,-90.8320,10.0,4.583,11133222 
WAVCIS,ioos:station:WAVCIS:CSI15:1,2010-06-10T03:00:00Z,28.8332,-90.8320,10.0,4.769,11133222 
WAVCIS,ioos:station:WAVCIS:CSI15:1,2010-06-10T04:00:00Z,28.8332,-90.8320,10.0,4.824,11133222 
WAVCIS,ioos:station:WAVCIS:CSI15:1,2010-06-10T05:00:00Z,28.8332,-90.8320,10.0,4.785,11133222 
WAVCIS,ioos:station:WAVCIS:CSI15:1,2010-06-10T06:00:00Z,28.8332,-90.8320,10.0,5.031,11133222 
WAVCIS,ioos:station:WAVCIS:CSI15:1,2010-06-10T07:00:00Z,28.8332,-90.8320,10.0,5.166,11133222 
WAVCIS,ioos:station:WAVCIS:CSI15:1,2010-06-10T08:00:00Z,28.8332,-90.8320,10.0,5.662,11133222 
WAVCIS,ioos:station:WAVCIS:CSI15:1,2010-06-10T09:00:00Z,28.8332,-90.8320,10.0,5.479,11133222 
WAVCIS,ioos:station:WAVCIS:CSI15:1,2010-06-10T10:00:00Z,28.8332,-90.8320,10.0,4.602,11133222 
WAVCIS,ioos:station:WAVCIS:CSI15:1,2010-06-10T11:00:00Z,28.8332,-90.8320,10.0,4.587,11133222 
WAVCIS,ioos:station:WAVCIS:CSI15:1,2010-06-10T12:00:00Z,28.8332,-90.8320,10.0,4.556,11133222 
WAVCIS,ioos:station:WAVCIS:CSI15:1,2010-06-10T13:00:00Z,28.8332,-90.8320,10.0,4.453,11133222 
WAVCIS,ioos:station:WAVCIS:CSI15:1,2010-06-10T14:00:00Z,28.8332,-90.8320,10.0,4.408,11133222 
WAVCIS,ioos:station:WAVCIS:CSI15:1,2010-06-10T15:00:00Z,28.8332,-90.8320,10.0,4.395,11133222 
WAVCIS,ioos:station:WAVCIS:CSI15:1,2010-06-10T16:00:00Z,28.8332,-90.8320,10.0,4.436,11133222 
WAVCIS,ioos:station:WAVCIS:CSI15:1,2010-06-10T17:00:00Z,28.8332,-90.8320,10.0,4.469,11133222 
WAVCIS,ioos:station:WAVCIS:CSI15:1,2010-06-10T18:00:00Z,28.8332,-90.8320,10.0,4.549,11133222 
WAVCIS,ioos:station:WAVCIS:CSI15:1,2010-06-10T19:00:00Z,28.8332,-90.8320,10.0,4.717,11133222 
WAVCIS,ioos:station:WAVCIS:CSI15:1,2010-06-10T20:00:00Z,28.8332,-90.8320,10.0,4.838,11133222 
WAVCIS,ioos:station:WAVCIS:CSI15:1,2010-06-10T21:00:00Z,28.8332,-90.8320,10.0,4.914,11133222 
WAVCIS,ioos:station:WAVCIS:CSI15:1,2010-06-10T22:00:00Z,28.8332,-90.8320,10.0,5.313,11133222 
WAVCIS,ioos:station:WAVCIS:CSI15:1,2010-06-10T23:00:00Z,28.8332,-90.8320,10.0,5.697,11133222 
WAVCIS,ioos:station:WAVCIS:CSI15:1,2010-06-11T00:00:00Z,28.8332,-90.8320,10.0,5.525,11133222 
WAVCIS,ioos:station:WAVCIS:CSI15:1,2010-06-11T01:00:00Z,28.8332,-90.8320,10.0,5.279,11133222 
WAVCIS,ioos:station:WAVCIS:CSI15:1,2010-06-11T02:00:00Z,28.8332,-90.8320,10.0,5.208,11133222 
WAVCIS,ioos:station:WAVCIS:CSI15:1,2010-06-11T03:00:00Z,28.8332,-90.8320,10.0,4.946,11133222 
WAVCIS,ioos:station:WAVCIS:CSI15:1,2010-06-11T04:00:00Z,28.8332,-90.8320,10.0,5.126,11133222 
WAVCIS,ioos:station:WAVCIS:CSI15:1,2010-06-11T05:00:00Z,28.8332,-90.8320,10.0,5.065,11133222 
WAVCIS,ioos:station:WAVCIS:CSI15:1,2010-06-11T06:00:00Z,28.8332,-90.8320,10.0,4.893,11133222 
WAVCIS,ioos:station:WAVCIS:CSI15:1,2010-06-11T07:00:00Z,28.8332,-90.8320,10.0,5.0,11133222 
WAVCIS,ioos:station:WAVCIS:CSI15:1,2010-06-11T08:00:00Z,28.8332,-90.8320,10.0,5.253,11133222 
WAVCIS,ioos:station:WAVCIS:CSI15:1,2010-06-11T09:00:00Z,28.8332,-90.8320,10.0,5.486,11133222 
WAVCIS,ioos:station:WAVCIS:CSI15:1,2010-06-11T10:00:00Z,28.8332,-90.8320,10.0,5.499,11133222 
WAVCIS,ioos:station:WAVCIS:CSI15:1,2010-06-11T11:00:00Z,28.8332,-90.8320,10.0,5.482,11133222 
WAVCIS,ioos:station:WAVCIS:CSI15:1,2010-06-11T12:00:00Z,28.8332,-90.8320,10.0,5.335,11133222 
WAVCIS,ioos:station:WAVCIS:CSI15:1,2010-06-11T13:00:00Z,28.8332,-90.8320,10.0,5.203,11133222 